This demonstration page uses our WeatherBlox Daily Observations layout. Learn more.

Left ArrowRight Arrow

36.17497, -115.13722

Hourly Observations for August 19, 2021

Temp ( °F °C ) Dew Point ( °F °C ) Humidity (%) Winds ( mph kmh ) Pressure ( in mb ) Visibility ( mi km ) Precip ( " mm )
12:53 am 00:53 Clear 81 27.2 45 7.2 28 28 NW 12 19 29.77 1008 9 14 0.00 0.00
1:21 am 01:21 Clear 79 26.1 45 7.2 30 30 E 12 19 29.70 1006 10 16 0.00 0.00
1:53 am 01:53 Clear 78 25.6 45 7.2 31 31 ESE 3 6 29.78 1009 10 16 0.00 0.00
2:53 am 02:53 Clear 77 25 47 8.3 35 35 E 6 9 29.79 1009 8 13 0.00 0.00
3:53 am 03:53 Clear 75 23.9 48 8.9 39 39 E 3 6 29.80 1009 7 11 0.00 0.00
4:53 am 04:53 Clear 75 23.9 48 8.9 39 39 Calm 29.81 1009 7 11 0.00 0.00
5:53 am 05:53 Clear with Smoke 75 23.9 48 8.9 39 39 Calm 29.82 1010 7 11 0.00 0.00
6:53 am 06:53 Hazy 74 23.3 49 9.4 41 41 Calm 29.85 1011 6 10 0.00 0.00
7:53 am 07:53 Sunny with Smoke 77 25 47 8.3 35 35 Calm 29.85 1011 7 11 0.00 0.00
8:53 am 08:53 Sunny with Smoke 79 26.1 47 8.3 32 32 E 5 7 29.86 1011 7 11 0.00 0.00
9:53 am 09:53 Sunny with Smoke 82 27.8 47 8.3 29 29 ESE 7 11 29.86 1011 7 11 0.00 0.00
10:53 am 10:53 Sunny with Smoke 83 28.3 46 7.8 27 27 SE 7 11 29.85 1011 10 16 0.00 0.00
11:53 am 11:53 Sunny with Smoke 87 30.6 43 6.1 21 21 NW 5 7 29.83 1010 10 16 0.00 0.00
12:53 pm 12:53 Sunny with Smoke 90 32.2 42 5.6 19 19 VRB 3 6 29.81 1010 10 16 0.00 0.00
1:53 pm 13:53 Sunny with Smoke 92 33.3 39 3.9 16 16 Calm 29.79 1009 10 16 0.00 0.00
2:53 pm 14:53 Sunny with Smoke 93 33.9 35 1.7 13 13 VRB 3 6 29.77 1008 10 16 0.00 0.00
3:53 pm 15:53 Sunny with Smoke 94 34.4 36 2.2 13 13 VRB 3 6 29.75 1008 7 11 0.00 0.00
4:53 pm 16:53 Sunny with Smoke 94 34.4 39 3.9 15 15 NW 9 15 29.75 1007 9 14 0.00 0.00
5:53 pm 17:53 Sunny with Smoke 94 34.4 38 3.3 14 14 N 7 11 29.75 1007 8 13 0.00 0.00
6:53 pm 18:53 Sunny with Smoke 93 33.9 40 4.4 16 16 N 7 11 29.75 1008 8 13 0.00 0.00
7:53 pm 19:53 Clear with Smoke 91 32.8 37 2.8 15 15 NNW 6 9 29.75 1008 8 13 0.00 0.00
8:53 pm 20:53 Clear with Smoke 90 32.2 35 1.7 14 14 Calm 29.77 1008 8 13 0.00 0.00
9:53 pm 21:53 Clear with Smoke 87 30.6 36 2.2 16 16 NW 3 6 29.77 1008 8 13 0.00 0.00
10:53 pm 22:53 Clear with Smoke 84 28.9 34 1.1 17 17 NNW 7 11 29.78 1009 8 13 0.00 0.00
11:53 pm 23:53 Clear with Smoke 84 28.9 31 -0.6 15 15 NNE 5 7 29.80 1009 10 16 0.00 0.00

Powered by AerisWeather